OBJECT F, 63296

Orbit data source: Space-Track

You're viewing an Uncataloged Satellite

Recently launched and/or uncataloged satellites may have evolving metadata. Metadata may include but not limited to: Owner, Maufacturer, Bus, Motor, and Mission.

OBJECT F, 63296 is a satellite owned by Yunyao yuhang (CN) in SSO that was launched on Mon, 17 Mar 2025 UTC via a GUSHENXING 1 launch vehicle from the Jiuquan Satellite Launch Center, China (JSC). Unknown objects in Earth's orbit typically refer to objects detected orbiting the Earth but have not yet been identified or cataloged. These objects could be anything from previously untracked satellites, spent rocket stages, debris from satellite collisions, or even natural meteoroids temporarily captured by Earth's gravity.

Loading next visibility...
Identifier
63296, 2025-055F
Orbit
SSO
Last TLE update
9 hours ago
Origin
Flag of CNYYAO (CN / PRC)
Manufacturer
Changguang WJ
Mission
Operational Commercial Meteo Radio Occ.
Bus & Motor
YY-1, Unknown motor
Mass
~50 kg wet, ~50 kg dry
Launch date (UTC)
2025-03-17 (2 months ago)
Launch vehicle
GUSHENXING 1
Launch site
Jiuquan Satellite Launch Center, China (JSC)
Object type
Unknown
Shape & HBR
Box + 1 Pan, 5 m
Radar Cross Section
5.339 m², Medium (>0.1 m² and < 1m²)

Expand to show TLE details & history

TLE from 9 hours ago
0 OBJECT F
1 63296U 25055F   25128.91978093  .00011713  00000-0  70018-3 0  9999
2 63296  97.6071 263.9656 0013789 113.1919 247.0764 15.11150327  7900
Epoch: 2025-05-08T22:04Z
Definitive object data (Epoch: 2025-05-08T22:04:29.072Z)
Latitude
-0.00009°
Longitude
65.86111°
Altitude
539.487 km
Speed
7.591 km/s
True Right ascension
17h 35m 51s
True Declination
0° 00' 00"
Sunlit
Object was in full shadow at TLE epoch
Visualization TLE readout
Latitude
48.13251°
Longitude
-105.263°
Altitude
531.255 km
Speed
7.607 km/s
Apparent Right ascension
04h 24m 50s
Apparent Declination
6° 59' 45"
Sunlit
Object is in daylight
Visualization observer readout
Local Sidereal Time
14:44:49
Azimuth
327.97° NNW
Elevation
-37.718°
Doppler factor
1
Orbital elements
Apogee altitude
539.202 km
Perigee altitude
520.152 km
Semi-major axis
6,907.814 km
Eccentricity
0.0013789
Inclination
97.6071°
RAAN
263.9656°
Arg. of periapsis
113.1919°
True anomaly
246.93097°
Mean anomaly
247.0764°
Eccentric anomaly
247.00367°
Mean motion
3.78035 °/min
BSTAR
0.00070018
Orbital period
95.23 mins
Loading maneuver chart data...
Loading SW <> Apogee altitude chart data...
Loading historical data...
Loading historical data...
Loading historical data...
Loading historical data...
Loading historical data...
Loading historical data...
Loading historical data...

OBJECT F Visibility forecast

Observer location: undefined°, undefined°

Span
Click to sort rows by Start time (UTC) header in descending order
Start Az.
Max El. time (UTC)
Max El. Az.
Max El.
End time (UTC)
End Az.
6 mins2025-05-09 09:19:57.649Z191.56° SSW2025-05-09 09:21:57.649Z235.805° WSW35.824°2025-05-09 09:25:57.649Z335.853° NNW
5 mins2025-05-09 22:28:57.649Z338.986° N2025-05-09 22:30:57.649Z294.356° NW26.221°2025-05-09 22:33:57.649Z231.434° WSW
|